• în Republica Moldova
  • Lista ţărilor
  • Pe 7 zile
  • Temperatura apei
  • Hartă satelitară
  • Meteo pe hartă
  • Widget-uri
  • user-avatar
    Intrare

    Meteo pe oră la Shkoder

    Astăzi, 21 Mai, Luni

    Timp Temperatura Precipitaţii Vânt Presiune Umiditate
    00:00 +17°C° 0,1 mm 3 m/s 739 mmHg 84%
    01:00 +17°C° 0 mm 3 m/s 739 mmHg 84%
    02:00 +16°C° 0 mm 3 m/s 739 mmHg 85%
    03:00 +16°C° 0 mm 3 m/s 738 mmHg 85%
    04:00 +16°C° 0 mm 3 m/s 738 mmHg 86%
    05:00 +17°C° 0 mm 3 m/s 738 mmHg 83%
    06:00 +19°C° 0 mm 3 m/s 738 mmHg 79%
    07:00 +20°C° 0 mm 3 m/s 738 mmHg 75%
    08:00 +22°C° 0,2 mm 3 m/s 738 mmHg 70%
    09:00 +24°C° 0,2 mm 2 m/s 738 mmHg 65%
    10:00 +25°C° 0,2 mm 2 m/s 738 mmHg 60%
    11:00 +26°C° 0,4 mm 2 m/s 738 mmHg 58%
    12:00 +26°C° 0,4 mm 2 m/s 738 mmHg 57%
    13:00 +26°C° 0 mm 2 m/s 738 mmHg 59%
    14:00 +26°C° 0,6 mm 2 m/s 738 mmHg 59%
    15:00 +26°C° 0,6 mm 2 m/s 738 mmHg 59%
    16:00 +26°C° 0,6 mm 2 m/s 737 mmHg 60%
    17:00 +24°C° 0,7 mm 1 m/s 737 mmHg 65%
    18:00 +22°C° 0,7 mm 1 m/s 737 mmHg 71%
    19:00 +21°C° 0,7 mm 1 m/s 737 mmHg 76%
    20:00 +20°C° 0,6 mm 1 m/s 738 mmHg 77%
    21:00 +19°C° 0,6 mm 1 m/s 738 mmHg 79%
    22:00 +19°C° 0,6 mm 1 m/s 738 mmHg 80%
    23:00 +19°C° 0,3 mm 1 m/s 739 mmHg 81%

    Mâine, 22 Mai, Marţi

    Timp Temperatura Precipitaţii Vânt Presiune Umiditate
    00:00 +18°C° 0,3 mm 1 m/s 739 mmHg 81%
    01:00 +18°C° 0,3 mm 1 m/s 739 mmHg 81%
    02:00 +18°C° 0,2 mm 1 m/s 739 mmHg 82%
    03:00 +17°C° 0,2 mm 2 m/s 739 mmHg 82%
    04:00 +17°C° 0,2 mm 2 m/s 739 mmHg 82%
    05:00 +19°C° 0,1 mm 1 m/s 739 mmHg 79%
    06:00 +21°C° 0,1 mm 1 m/s 739 mmHg 76%
    07:00 +22°C° 0,1 mm 1 m/s 739 mmHg 72%
    08:00 +23°C° 0,4 mm 1 m/s 740 mmHg 70%
    09:00 +24°C° 0,4 mm 2 m/s 740 mmHg 67%
    10:00 +25°C° 0,4 mm 2 m/s 740 mmHg 64%
    11:00 +26°C° 1,1 mm 2 m/s 740 mmHg 64%
    12:00 +26°C° 1,1 mm 2 m/s 740 mmHg 64%
    13:00 +26°C° 1,1 mm 2 m/s 740 mmHg 64%
    14:00 +26°C° 1,2 mm 2 m/s 740 mmHg 65%
    15:00 +26°C° 1,2 mm 2 m/s 740 mmHg 66%
    16:00 +26°C° 1,2 mm 2 m/s 740 mmHg 67%
    17:00 +24°C° 0,3 mm 1 m/s 740 mmHg 72%
    18:00 +22°C° 0,3 mm 1 m/s 740 mmHg 77%
    19:00 +21°C° 0,3 mm 1 m/s 740 mmHg 82%
    20:00 +20°C° 0,1 mm 1 m/s 740 mmHg 82%
    21:00 +20°C° 0,1 mm 1 m/s 741 mmHg 82%
    22:00 +19°C° 0,1 mm 1 m/s 741 mmHg 81%
    23:00 +19°C° 0,1 mm 1 m/s 741 mmHg 80%

    Poimâine, 23 Mai, Miercuri

    Timp Temperatura Precipitaţii Vânt Presiune Umiditate
    00:00 +18°C° 0,1 mm 2 m/s 741 mmHg 79%
    01:00 +18°C° 0,1 mm 2 m/s 741 mmHg 79%
    02:00 +17°C° 0,2 mm 2 m/s 741 mmHg 78%
    03:00 +17°C° 0,2 mm 2 m/s 741 mmHg 77%
    04:00 +17°C° 0,2 mm 2 m/s 741 mmHg 76%
    05:00 +18°C° 0,7 mm 2 m/s 741 mmHg 75%
    06:00 +20°C° 0,7 mm 2 m/s 741 mmHg 73%
    07:00 +21°C° 0,7 mm 2 m/s 741 mmHg 72%
    08:00 +23°C° 0,5 mm 2 m/s 741 mmHg 69%
    09:00 +24°C° 0,5 mm 2 m/s 741 mmHg 66%
    10:00 +25°C° 0,5 mm 1 m/s 741 mmHg 63%
    11:00 +25°C° 0,7 mm 1 m/s 741 mmHg 63%
    12:00 +26°C° 0,7 mm 2 m/s 741 mmHg 62%
    13:00 +26°C° 0,7 mm 2 m/s 740 mmHg 61%
    14:00 +25°C° 0,8 mm 2 m/s 740 mmHg 64%
    15:00 +25°C° 0,8 mm 2 m/s 740 mmHg 67%
    16:00 +24°C° 0,8 mm 2 m/s 740 mmHg 70%
    17:00 +23°C° 0,7 mm 2 m/s 740 mmHg 76%
    18:00 +22°C° 0,7 mm 1 m/s 740 mmHg 81%
    19:00 +20°C° 0,7 mm 1 m/s 740 mmHg 86%
    20:00 +20°C° 0,1 mm 1 m/s 740 mmHg 87%
    21:00 +19°C° 0,1 mm 1 m/s 740 mmHg 87%
    22:00 +18°C° 0,1 mm 1 m/s 740 mmHg 87%
    23:00 +18°C° 0 mm 1 m/s 740 mmHg 86%

    24 Mai, Joi

    Timp Temperatura Precipitaţii Vânt Presiune Umiditate
    00:00 +18°C° 0 mm 1 m/s 740 mmHg 86%
    01:00 +18°C° 0 mm 1 m/s 740 mmHg 85%
    02:00 +16°C° 0 mm 1 m/s 740 mmHg 84%
    03:00 +16°C° 0 mm 1 m/s 740 mmHg 84%
    04:00 +16°C° 0 mm 1 m/s 739 mmHg 84%
    05:00 +19°C° 0 mm 1 m/s 739 mmHg 80%
    06:00 +20°C° 0 mm 1 m/s 739 mmHg 77%
    07:00 +21°C° 0 mm 1 m/s 739 mmHg 73%
    08:00 +23°C° 0 mm 1 m/s 739 mmHg 69%
    09:00 +24°C° 0 mm 1 m/s 739 mmHg 64%
    10:00 +25°C° 0 mm 1 m/s 739 mmHg 60%
    11:00 +26°C° 0,3 mm 2 m/s 739 mmHg 60%
    12:00 +26°C° 0,3 mm 2 m/s 739 mmHg 60%
    13:00 +26°C° 0,3 mm 2 m/s 739 mmHg 60%
    14:00 +26°C° 0,7 mm 2 m/s 738 mmHg 64%
    15:00 +25°C° 0,7 mm 2 m/s 738 mmHg 67%
    16:00 +25°C° 0,7 mm 2 m/s 738 mmHg 70%
    17:00 +24°C° 0,7 mm 2 m/s 738 mmHg 75%
    18:00 +21°C° 0,7 mm 2 m/s 738 mmHg 80%
    19:00 +20°C° 0,7 mm 2 m/s 738 mmHg 85%
    20:00 +19°C° 0 mm 2 m/s 739 mmHg 86%
    21:00 +19°C° 0 mm 2 m/s 739 mmHg 86%
    22:00 +18°C° 0 mm 2 m/s 739 mmHg 87%
    23:00 +18°C° 0 mm 2 m/s 739 mmHg 87%

    25 Mai, Vineri

    Timp Temperatura Precipitaţii Vânt Presiune Umiditate
    00:00 +18°C° 0 mm 2 m/s 739 mmHg 88%
    01:00 +17°C° 0 mm 3 m/s 739 mmHg 88%
    02:00 +17°C° 0 mm 3 m/s 739 mmHg 88%
    03:00 +17°C° 0 mm 3 m/s 739 mmHg 88%
    04:00 +16°C° 0 mm 3 m/s 739 mmHg 89%
    05:00 +18°C° 0 mm 3 m/s 739 mmHg 84%
    06:00 +19°C° 0 mm 3 m/s 739 mmHg 80%
    07:00 +21°C° 0 mm 3 m/s 739 mmHg 76%
    08:00 +22°C° 0 mm 3 m/s 739 mmHg 68%
    09:00 +25°C° 0 mm 3 m/s 739 mmHg 60%
    10:00 +26°C° 0 mm 3 m/s 739 mmHg 52%
    11:00 +27°C° 0 mm 3 m/s 739 mmHg 51%
    12:00 +28°C° 0 mm 3 m/s 739 mmHg 49%
    13:00 +28°C° 0 mm 3 m/s 739 mmHg 48%
    14:00 +28°C° 0 mm 3 m/s 739 mmHg 50%
    15:00 +28°C° 0 mm 3 m/s 739 mmHg 52%
    16:00 +28°C° 0 mm 3 m/s 738 mmHg 53%
    17:00 +26°C° 0 mm 3 m/s 739 mmHg 61%
    18:00 +24°C° 0 mm 3 m/s 739 mmHg 68%
    19:00 +21°C° 0 mm 3 m/s 739 mmHg 76%
    20:00 +20°C° 0 mm 3 m/s 739 mmHg 77%
    21:00 +20°C° 0 mm 3 m/s 739 mmHg 78%
    22:00 +19°C° 0 mm 3 m/s 740 mmHg 80%
    23:00 +18°C° 0 mm 3 m/s 740 mmHg 81%

    26 Mai, Sâmbătă

    Timp Temperatura Precipitaţii Vânt Presiune Umiditate
    00:00 +18°C° 0 mm 3 m/s 740 mmHg 83%
    01:00 +18°C° 0 mm 3 m/s 740 mmHg 84%
    02:00 +17°C° 0 mm 3 m/s 740 mmHg 84%
    03:00 +17°C° 0 mm 3 m/s 740 mmHg 84%
    04:00 +17°C° 0 mm 3 m/s 740 mmHg 84%
    05:00 +19°C° 0 mm 3 m/s 740 mmHg 80%
    06:00 +21°C° 0 mm 3 m/s 740 mmHg 76%
    07:00 +22°C° 0 mm 3 m/s 740 mmHg 73%
    08:00 +25°C° 0 mm 3 m/s 740 mmHg 68%
    09:00 +26°C° 0 mm 3 m/s 740 mmHg 63%
    10:00 +27°C° 0 mm 3 m/s 741 mmHg 58%
    11:00 +28°C° 0,2 mm 3 m/s 740 mmHg 58%
    12:00 +28°C° 0,2 mm 4 m/s 740 mmHg 57%
    13:00 +28°C° 0,2 mm 4 m/s 740 mmHg 57%
    14:00 +28°C° 0,4 mm 4 m/s 740 mmHg 58%
    15:00 +28°C° 0,4 mm 4 m/s 740 mmHg 60%
    16:00 +28°C° 0,4 mm 3 m/s 740 mmHg 61%
    17:00 +26°C° 0,2 mm 3 m/s 740 mmHg 67%
    18:00 +24°C° 0,2 mm 3 m/s 740 mmHg 72%
    19:00 +22°C° 0,2 mm 3 m/s 741 mmHg 78%
    20:00 +21°C° 0 mm 3 m/s 741 mmHg 80%
    21:00 +20°C° 0 mm 3 m/s 741 mmHg 82%
    22:00 +20°C° 0 mm 3 m/s 742 mmHg 83%
    23:00 +19°C° 0 mm 3 m/s 742 mmHg 84%
    Arată mai mult